User: anonymous
Location: Vancouver
(49.2500°N, 123.1330°W)
Time: 05:14:30
(UTC-07:00)
Language:

Cosmos 1340 Rocket - Orbit

View from above orbital plane
View from above orbital plane
View from above satellite
View from above satellite

Ground track
Ground track

The orbit data is extracted from the following two-line orbital elements,

1 13068U 82013B   14273.44382544  .00003116  00000-0  22005-3 0  5206
2 13068 081.2020 272.1526 0022133 347.9221 012.1468 15.04474276774366
Epoch (UTC): 30 September 2014 10:39:06
Eccentricity: 0.0022133
inclination: 81.2020°
perigee height: 538 km
apogee height: 568 km
right ascension of ascending node: 272.1526°
argument of perigee: 347.9221°
revolutions per day: 15.04474276
mean anomaly at epoch: 12.1468°
orbit number at epoch: 77436

The dashed part of the orbit path shows where the satellite is in the earth's shadow,  

DLR